B1900 ZPLJ-ZPPP

Flight info

Callsign B1900
Flight time N/A
Altitude 25600
Route DAL31D DAL W162 BUBSU W146 GULOT GULOJ1
Aircraft E190/M-SDE3GILORVW/S

Departure

Time 2026-05-05 09:13
Airport Lijiang Sanyi International Airport (ZPLJ)

Arrival

Time N/A
Airport Kunming Changshui International Airport (ZPPP)
Time Latitude Longitude Altitude Speed Heading
2026-05-05 09:07 26.67310 100.24521 7408 ft 0 kts 17°
2026-05-05 09:08 26.67324 100.24526 7408 ft 3 kts 17°
2026-05-05 09:08 26.67358 100.24538 7408 ft 7 kts 19°
2026-05-05 09:09 26.67449 100.24572 7408 ft 18 kts 18°
2026-05-05 09:09 26.67574 100.24615 7407 ft 18 kts 18°
2026-05-05 09:09 26.67696 100.24660 7407 ft 18 kts 16°
2026-05-05 09:09 26.67838 100.24705 7407 ft 26 kts 14°
2026-05-05 09:10 26.68056 100.24782 7406 ft 41 kts 17°
2026-05-05 09:10 26.68288 100.24860 7405 ft 32 kts 18°
2026-05-05 09:10 26.68503 100.24933 7405 ft 31 kts 19°
2026-05-05 09:10 26.68712 100.25006 7404 ft 31 kts 18°
2026-05-05 09:11 26.68912 100.25068 7404 ft 20 kts 359°
2026-05-05 09:11 26.68956 100.25034 7404 ft 5 kts 296°
2026-05-05 09:11 26.68969 100.24992 7404 ft 7 kts 288°
2026-05-05 09:11 26.68972 100.24918 7404 ft 6 kts 237°
2026-05-05 09:12 26.68943 100.24904 7404 ft 8 kts 207°
2026-05-05 09:12 26.68781 100.24845 7404 ft 48 kts 195°
2026-05-05 09:12 26.68290 100.24678 7406 ft 97 kts 197°
2026-05-05 09:12 26.67500 100.24415 7408 ft 139 kts 195°
2026-05-05 09:13 26.66449 100.24056 7434 ft 172 kts 195°
2026-05-05 09:13 26.65292 100.23686 7758 ft 175 kts 193°
2026-05-05 09:13 26.64104 100.23253 8160 ft 180 kts 204°
2026-05-05 09:13 26.62949 100.22668 8565 ft 186 kts 201°
2026-05-05 09:14 26.61753 100.22150 9091 ft 184 kts 199°
2026-05-05 09:14 26.60540 100.21684 9568 ft 186 kts 197°
2026-05-05 09:14 26.59295 100.21245 10078 ft 186 kts 196°
2026-05-05 09:14 26.58075 100.20836 10584 ft 184 kts 196°
2026-05-05 09:15 26.56888 100.20451 11013 ft 176 kts 197°
2026-05-05 09:15 26.55718 100.20079 11473 ft 175 kts 197°
2026-05-05 09:15 26.54550 100.19713 11929 ft 173 kts 197°
2026-05-05 09:15 26.53390 100.19351 12377 ft 171 kts 198°
2026-05-05 09:16 26.52269 100.19004 12823 ft 166 kts 199°
2026-05-05 09:16 26.51171 100.18666 13225 ft 163 kts 199°
2026-05-05 09:16 26.50058 100.18339 13494 ft 168 kts 197°
2026-05-05 09:16 26.48900 100.18069 13791 ft 171 kts 193°
2026-05-05 09:17 26.47719 100.17940 14185 ft 168 kts 185°
2026-05-05 09:17 26.46532 100.18038 14420 ft 177 kts 172°
2026-05-05 09:17 26.45336 100.18490 14681 ft 184 kts 154°
2026-05-05 09:17 26.44342 100.19394 14998 ft 188 kts 128°
2026-05-05 09:18 26.43801 100.20753 15129 ft 202 kts 94°
2026-05-05 09:18 26.44005 100.22294 15364 ft 202 kts 71°
2026-05-05 09:18 26.43948 100.23795 15706 ft 200 kts 115°
2026-05-05 09:18 26.43271 100.25201 15644 ft 223 kts 126°
2026-05-05 09:19 26.42373 100.26644 15940 ft 224 kts 121°
2026-05-05 09:19 26.41667 100.28188 16315 ft 225 kts 115°
2026-05-05 09:19 26.41045 100.29808 16619 ft 229 kts 112°
2026-05-05 09:19 26.40467 100.31466 16934 ft 231 kts 111°
2026-05-05 09:20 26.39910 100.33153 17255 ft 233 kts 110°
2026-05-05 09:20 26.39366 100.34849 17576 ft 235 kts 110°
2026-05-05 09:20 26.38821 100.36581 17905 ft 236 kts 109°
2026-05-05 09:20 26.38282 100.38306 18226 ft 237 kts 110°
2026-05-05 09:21 26.37733 100.40022 18545 ft 238 kts 110°
2026-05-05 09:21 26.37170 100.41780 18865 ft 238 kts 110°
2026-05-05 09:21 26.36614 100.43517 19177 ft 239 kts 110°
2026-05-05 09:21 26.36059 100.45252 19484 ft 240 kts 110°
2026-05-05 09:22 26.35495 100.47012 19788 ft 241 kts 110°
2026-05-05 09:22 26.34937 100.48752 20079 ft 241 kts 110°
2026-05-05 09:22 26.34366 100.50536 20378 ft 242 kts 110°
2026-05-05 09:22 26.33803 100.52292 20677 ft 243 kts 110°
2026-05-05 09:23 26.33234 100.54063 20967 ft 243 kts 110°
2026-05-05 09:23 26.32663 100.55826 21253 ft 243 kts 116°
2026-05-05 09:23 26.31605 100.57210 21460 ft 232 kts 161°
2026-05-05 09:23 26.30104 100.57507 21647 ft 213 kts 200°
2026-05-05 09:24 26.28679 100.57098 21896 ft 210 kts 204°
2026-05-05 09:24 26.27286 100.56628 22155 ft 210 kts 205°
2026-05-05 09:24 26.25881 100.56123 22428 ft 210 kts 206°
2026-05-05 09:24 26.24507 100.55611 22698 ft 210 kts 206°
2026-05-05 09:25 26.23112 100.55082 22960 ft 210 kts 207°
2026-05-05 09:25 26.21721 100.54548 23211 ft 211 kts 207°
2026-05-05 09:25 26.20343 100.54015 23418 ft 214 kts 207°
2026-05-05 09:25 26.18895 100.53451 23466 ft 227 kts 206°
2026-05-05 09:26 26.17351 100.52851 23539 ft 240 kts 206°
2026-05-05 09:26 26.15752 100.52231 23732 ft 247 kts 206°
2026-05-05 09:26 26.14101 100.51591 24000 ft 252 kts 206°
2026-05-05 09:26 26.12422 100.50939 24299 ft 255 kts 206°
2026-05-05 09:27 26.10739 100.50286 24615 ft 258 kts 206°
2026-05-05 09:27 26.09044 100.49628 24940 ft 260 kts 206°
2026-05-05 09:27 26.07334 100.48965 25270 ft 261 kts 206°
2026-05-05 09:27 26.05613 100.48297 25590 ft 263 kts 206°
2026-05-05 09:28 26.03841 100.47607 25665 ft 275 kts 205°
2026-05-05 09:28 26.02000 100.46892 25689 ft 290 kts 205°
2026-05-05 09:28 26.00044 100.46133 25696 ft 305 kts 205°
2026-05-05 09:28 25.98000 100.45341 25700 ft 320 kts 205°
2026-05-05 09:29 25.95840 100.44504 25702 ft 335 kts 204°
2026-05-05 09:29 25.93574 100.43627 25702 ft 350 kts 204°
2026-05-05 09:29 25.91229 100.42720 25709 ft 364 kts 204°
2026-05-05 09:29 25.88785 100.41775 25713 ft 379 kts 204°
2026-05-05 09:30 25.86256 100.40797 25712 ft 392 kts 204°
2026-05-05 09:30 25.83606 100.39773 25707 ft 406 kts 204°
2026-05-05 09:30 25.80900 100.38727 25715 ft 418 kts 203°
2026-05-05 09:30 25.78115 100.37652 25719 ft 428 kts 203°
2026-05-05 09:31 25.75286 100.36561 25720 ft 429 kts 203°
2026-05-05 09:31 25.72460 100.35471 25716 ft 427 kts 203°
2026-05-05 09:31 25.69667 100.34394 25710 ft 427 kts 203°
2026-05-05 09:31 25.66831 100.33301 25712 ft 427 kts 203°
2026-05-05 09:32 25.63990 100.32341 25702 ft 431 kts 194°
2026-05-05 09:32 25.60987 100.31890 25713 ft 434 kts 191°
2026-05-05 09:32 25.58008 100.31487 25696 ft 435 kts 191°
2026-05-05 09:32 25.55013 100.31085 25693 ft 434 kts 191°
2026-05-05 09:33 25.52007 100.30682 25693 ft 434 kts 191°
2026-05-05 09:33 25.48993 100.30279 25690 ft 434 kts 191°
2026-05-05 09:33 25.45993 100.29878 25685 ft 434 kts 191°
2026-05-05 09:33 25.42981 100.29475 25678 ft 434 kts 191°
2026-05-05 09:34 25.39991 100.29074 25670 ft 434 kts 191°
2026-05-05 09:34 25.36988 100.28673 25669 ft 434 kts 191°
2026-05-05 09:34 25.33980 100.28271 25650 ft 434 kts 191°
2026-05-05 09:34 25.30985 100.27872 25647 ft 434 kts 191°
2026-05-05 09:35 25.27949 100.27467 25646 ft 433 kts 191°
2026-05-05 09:35 25.21941 100.26666 25635 ft 434 kts 191°
2026-05-05 09:35 25.18962 100.26268 25633 ft 433 kts 191°
2026-05-05 09:36 25.15953 100.25867 25628 ft 433 kts 191°
2026-05-05 09:36 25.12937 100.25463 25628 ft 434 kts 191°
2026-05-05 09:36 25.09933 100.25056 25630 ft 434 kts 191°
2026-05-05 09:36 25.06953 100.24651 25627 ft 434 kts 191°
2026-05-05 09:37 25.03913 100.24580 25622 ft 441 kts 174°
2026-05-05 09:37 25.01017 100.25688 25657 ft 451 kts 152°
2026-05-05 09:37 24.98568 100.27931 25655 ft 459 kts 131°
2026-05-05 09:37 24.96982 100.30985 25655 ft 462 kts 109°
2026-05-05 09:38 24.96224 100.34373 25659 ft 463 kts 104°
2026-05-05 09:38 24.95377 100.37821 25636 ft 463 kts 106°
2026-05-05 09:38 24.94473 100.41206 25635 ft 463 kts 107°
2026-05-05 09:38 24.93543 100.44617 25633 ft 462 kts 107°
2026-05-05 09:39 24.92620 100.47980 25636 ft 462 kts 107°
2026-05-05 09:39 24.91684 100.51384 25641 ft 463 kts 107°
2026-05-05 09:39 24.90763 100.54730 25645 ft 462 kts 107°
2026-05-05 09:39 24.89826 100.58126 25644 ft 462 kts 107°
2026-05-05 09:40 24.88884 100.61540 25643 ft 462 kts 107°
2026-05-05 09:40 24.87960 100.64885 25646 ft 461 kts 107°
2026-05-05 09:40 24.87018 100.68292 25636 ft 461 kts 107°
2026-05-05 09:40 24.86079 100.71683 25640 ft 462 kts 107°
2026-05-05 09:41 24.85143 100.75060 25644 ft 461 kts 107°
2026-05-05 09:41 24.84216 100.78405 25648 ft 462 kts 107°
2026-05-05 09:41 24.83276 100.81790 25647 ft 462 kts 107°
2026-05-05 09:41 24.82341 100.85155 25642 ft 462 kts 107°
2026-05-05 09:42 24.81407 100.88511 25638 ft 461 kts 107°
2026-05-05 09:42 24.80460 100.91914 25633 ft 462 kts 107°
2026-05-05 09:42 24.79527 100.95261 25624 ft 462 kts 107°
2026-05-05 09:42 24.78580 100.98657 25612 ft 461 kts 107°
2026-05-05 09:43 24.77641 101.02019 25600 ft 462 kts 107°
2026-05-05 09:43 24.76706 101.05366 25604 ft 461 kts 107°
2026-05-05 09:43 24.75763 101.08736 25609 ft 461 kts 107°
2026-05-05 09:43 24.74817 101.12116 25613 ft 462 kts 107°
2026-05-05 09:44 24.73870 101.15492 25620 ft 462 kts 107°
2026-05-05 09:44 24.72933 101.18832 25625 ft 462 kts 107°
2026-05-05 09:44 24.71987 101.22202 25628 ft 462 kts 107°
2026-05-05 09:44 24.71031 101.25603 25630 ft 463 kts 107°
2026-05-05 09:45 24.70085 101.28966 25627 ft 463 kts 107°
2026-05-05 09:45 24.69129 101.32359 25615 ft 463 kts 107°
2026-05-05 09:45 24.68187 101.35704 25606 ft 463 kts 107°
2026-05-05 09:45 24.67222 101.39123 25597 ft 464 kts 107°
2026-05-05 09:46 24.66281 101.42457 25584 ft 459 kts 107°
2026-05-05 09:46 24.65346 101.45763 25567 ft 449 kts 107°
2026-05-05 09:46 24.64422 101.49030 25559 ft 449 kts 107°
2026-05-05 09:46 24.63492 101.52313 25553 ft 450 kts 107°
2026-05-05 09:47 24.62571 101.55561 25557 ft 449 kts 107°
2026-05-05 09:47 24.61636 101.58853 25558 ft 449 kts 107°
2026-05-05 09:47 24.60701 101.62139 25560 ft 450 kts 107°
2026-05-05 09:47 24.59773 101.65397 25559 ft 450 kts 108°
2026-05-05 09:48 24.58834 101.68684 25554 ft 450 kts 108°
2026-05-05 09:48 24.57905 101.71928 25556 ft 449 kts 108°
2026-05-05 09:48 24.56963 101.75208 25559 ft 449 kts 108°
2026-05-05 09:48 24.56023 101.78480 25557 ft 449 kts 108°
2026-05-05 09:49 24.55078 101.81761 25561 ft 450 kts 108°
2026-05-05 09:49 24.54137 101.85021 25561 ft 450 kts 108°
2026-05-05 09:49 24.53198 101.88267 25561 ft 450 kts 108°
2026-05-05 09:49 24.52261 101.91499 25309 ft 437 kts 108°
2026-05-05 09:50 24.51349 101.94641 24643 ft 433 kts 108°
2026-05-05 09:50 24.50441 101.97770 23798 ft 435 kts 108°
2026-05-05 09:50 24.49522 102.00931 22993 ft 434 kts 108°
2026-05-05 09:50 24.48614 102.04049 22313 ft 430 kts 108°
2026-05-05 09:51 24.47706 102.07163 21693 ft 425 kts 108°
2026-05-05 09:51 24.46819 102.10200 21096 ft 419 kts 108°
2026-05-05 09:51 24.45926 102.13253 20474 ft 415 kts 108°
2026-05-05 09:51 24.44914 102.16143 19833 ft 409 kts 122°
2026-05-05 09:52 24.43086 102.18455 19153 ft 399 kts 147°
2026-05-05 09:52 24.40630 102.19739 18486 ft 384 kts 172°
2026-05-05 09:52 24.38058 102.19801 17854 ft 368 kts 196°
2026-05-05 09:52 24.35759 102.18680 17215 ft 353 kts 221°
2026-05-05 09:53 24.34255 102.16685 16595 ft 341 kts 247°
2026-05-05 09:53 24.33767 102.14198 15977 ft 334 kts 273°
2026-05-05 09:53 24.34392 102.11806 15370 ft 333 kts 299°
2026-05-05 09:53 24.35951 102.09907 14773 ft 334 kts 315°
2026-05-05 09:54 24.37681 102.08235 14207 ft 330 kts 315°
2026-05-05 09:54 24.39380 102.06594 13646 ft 326 kts 315°
2026-05-05 09:54 24.41052 102.04981 13498 ft 308 kts 315°
2026-05-05 09:54 24.42631 102.03455 13482 ft 306 kts 315°
2026-05-05 09:55 24.44289 102.01844 13505 ft 324 kts 315°
2026-05-05 09:55 24.45972 102.00204 13492 ft 329 kts 315°
2026-05-05 09:55 24.47682 101.98541 13482 ft 328 kts 315°
2026-05-05 09:55 24.49289 101.96777 13472 ft 325 kts 304°
2026-05-05 09:56 24.50443 101.94658 13479 ft 322 kts 294°
2026-05-05 09:56 24.51334 101.92413 13474 ft 322 kts 290°
2026-05-05 09:56 24.52183 101.90120 13466 ft 322 kts 296°
2026-05-05 09:56 24.53501 101.88120 13478 ft 326 kts 308°
2026-05-05 09:57 24.54620 101.86039 13471 ft 321 kts 284°
2026-05-05 09:57 24.54675 101.83597 13485 ft 321 kts 257°
2026-05-05 09:57 24.53625 101.81434 13484 ft 327 kts 230°
2026-05-05 09:57 24.51735 101.80064 13480 ft 338 kts 203°
2026-05-05 09:58 24.49418 101.79768 13301 ft 337 kts 178°
2026-05-05 09:58 24.47194 101.80649 12852 ft 349 kts 147°
2026-05-05 09:58 24.45516 101.82709 12826 ft 369 kts 120°
2026-05-05 09:58 24.44799 101.85402 12804 ft 372 kts 92°
2026-05-05 09:59 24.45196 101.88163 12799 ft 369 kts 66°
2026-05-05 09:59 24.46116 101.90776 12792 ft 369 kts 72°
2026-05-05 09:59 24.46799 101.93481 12788 ft 370 kts 73°
2026-05-05 09:59 24.47487 101.96229 12783 ft 369 kts 73°
2026-05-05 10:00 24.48250 101.98904 12779 ft 369 kts 68°
2026-05-05 10:00 24.49021 102.01566 12784 ft 369 kts 73°
2026-05-05 10:00 24.49210 102.02304 12784 ft 370 kts 73°
2026-05-05 10:01 24.49563 102.03755 12781 ft 370 kts 75°
2026-05-05 10:01 24.50196 102.06465 12774 ft 368 kts 68°
2026-05-05 10:01 24.51552 102.08829 12798 ft 362 kts 44°
2026-05-05 10:02 24.53202 102.10885 12793 ft 364 kts 50°
2026-05-05 10:02 24.54537 102.13271 12787 ft 367 kts 63°
2026-05-05 10:02 24.55408 102.15914 12790 ft 368 kts 75°
2026-05-05 10:02 24.55985 102.18640 12863 ft 370 kts 72°
2026-05-05 10:03 24.57194 102.21080 12806 ft 363 kts 44°
2026-05-05 10:03 24.59202 102.22647 12813 ft 353 kts 17°
2026-05-05 10:03 24.61560 102.23060 12816 ft 340 kts 350°
2026-05-05 10:03 24.63762 102.22259 12815 ft 330 kts 322°
2026-05-05 10:04 24.65301 102.20457 12815 ft 321 kts 295°
2026-05-05 10:04 24.65823 102.18138 12814 ft 317 kts 268°
2026-05-05 10:04 24.65289 102.15797 12813 ft 321 kts 243°
2026-05-05 10:04 24.63764 102.13992 12816 ft 330 kts 215°
2026-05-05 10:05 24.61574 102.13172 12816 ft 341 kts 188°
2026-05-05 10:05 24.59180 102.13568 12818 ft 354 kts 161°
2026-05-05 10:05 24.57136 102.15069 12829 ft 361 kts 141°
2026-05-05 10:05 24.55274 102.16936 12805 ft 362 kts 139°
2026-05-05 10:06 24.53835 102.19192 12806 ft 367 kts 112°
2026-05-05 10:06 24.53418 102.21941 12825 ft 370 kts 85°
2026-05-05 10:06 24.53959 102.24689 12835 ft 369 kts 72°
2026-05-05 10:06 24.54976 102.27273 12829 ft 366 kts 60°
2026-05-05 10:07 24.56189 102.29737 12826 ft 365 kts 59°
2026-05-05 10:07 24.57412 102.32153 12831 ft 365 kts 57°
2026-05-05 10:07 24.59026 102.34273 12846 ft 360 kts 40°
2026-05-05 10:07 24.60856 102.36130 12840 ft 360 kts 39°
2026-05-05 10:08 24.62700 102.37993 12840 ft 360 kts 39°
2026-05-05 10:08 24.64549 102.39862 12844 ft 360 kts 40°
2026-05-05 10:08 24.66038 102.42110 12853 ft 366 kts 66°
2026-05-05 10:08 24.66495 102.44851 12880 ft 369 kts 93°
2026-05-05 10:09 24.65843 102.47530 12892 ft 367 kts 120°
2026-05-05 10:09 24.64290 102.49733 12907 ft 363 kts 131°
2026-05-05 10:09 24.63137 102.52204 12879 ft 368 kts 104°
2026-05-05 10:09 24.63073 102.54996 12878 ft 369 kts 76°
2026-05-05 10:10 24.64099 102.57527 12877 ft 364 kts 50°
2026-05-05 10:10 24.65746 102.59644 12867 ft 362 kts 45°
2026-05-05 10:10 24.67413 102.61714 12846 ft 362 kts 45°
2026-05-05 10:10 24.69074 102.63776 12838 ft 362 kts 45°
2026-05-05 10:11 24.70753 102.65862 12828 ft 363 kts 46°
2026-05-05 10:11 24.72427 102.67942 12824 ft 363 kts 46°
2026-05-05 10:11 24.74075 102.70036 12812 ft 364 kts 52°
2026-05-05 10:11 24.75091 102.72606 12824 ft 370 kts 80°
2026-05-05 10:12 24.74998 102.75417 12836 ft 369 kts 107°
2026-05-05 10:12 24.74298 102.78102 12842 ft 370 kts 103°
2026-05-05 10:12 24.73830 102.80897 12833 ft 370 kts 99°
2026-05-05 10:12 24.73471 102.83672 12832 ft 370 kts 98°
2026-05-05 10:13 24.73145 102.86490 12833 ft 370 kts 97°
2026-05-05 10:13 24.72832 102.89307 12840 ft 370 kts 97°
2026-05-05 10:13 24.72826 102.92104 12839 ft 369 kts 76°
2026-05-05 10:13 24.73873 102.94643 12864 ft 365 kts 49°
2026-05-05 10:14 24.75772 102.96398 12868 ft 356 kts 22°
2026-05-05 10:14 24.78123 102.97040 12869 ft 345 kts 355°
2026-05-05 10:14 24.80417 102.96446 12873 ft 332 kts 327°
2026-05-05 10:14 24.82101 102.94813 12871 ft 323 kts 301°
2026-05-05 10:15 24.82840 102.92545 12873 ft 318 kts 273°
2026-05-05 10:15 24.82529 102.90138 12883 ft 320 kts 255°
2026-05-05 10:15 24.81916 102.87803 12856 ft 319 kts 255°
2026-05-05 10:15 24.81296 102.85452 12845 ft 319 kts 255°
2026-05-05 10:16 24.80674 102.83091 12840 ft 319 kts 255°
2026-05-05 10:16 24.80063 102.80776 12834 ft 319 kts 255°
2026-05-05 10:16 24.79449 102.78413 12831 ft 320 kts 258°
2026-05-05 10:16 24.79068 102.76033 12832 ft 318 kts 262°
2026-05-05 10:17 24.78994 102.73604 12838 ft 318 kts 276°
2026-05-05 10:17 24.79417 102.71228 12849 ft 319 kts 284°
2026-05-05 10:17 24.80056 102.68889 12848 ft 319 kts 287°
2026-05-05 10:17 24.80795 102.66548 12845 ft 320 kts 288°
2026-05-05 10:18 24.81550 102.64281 12851 ft 319 kts 289°
2026-05-05 10:18 24.82328 102.61997 12858 ft 319 kts 289°
2026-05-05 10:18 24.83123 102.59687 12862 ft 320 kts 289°
2026-05-05 10:18 24.83906 102.57416 12864 ft 320 kts 289°
2026-05-05 10:19 24.84691 102.55141 12867 ft 320 kts 289°
2026-05-05 10:19 24.85484 102.52844 12869 ft 320 kts 289°
2026-05-05 10:19 24.86280 102.50537 12869 ft 320 kts 289°
2026-05-05 10:19 24.87067 102.48256 12857 ft 320 kts 289°
2026-05-05 10:20 24.87860 102.45956 12852 ft 319 kts 289°
2026-05-05 10:20 24.88650 102.43662 12846 ft 320 kts 289°
2026-05-05 10:20 24.89436 102.41383 12841 ft 321 kts 289°
2026-05-05 10:20 24.90225 102.39091 12835 ft 319 kts 289°
2026-05-05 10:21 24.91005 102.36820 12830 ft 320 kts 289°
2026-05-05 10:21 24.91792 102.34534 12829 ft 320 kts 289°
2026-05-05 10:21 24.92590 102.32210 12827 ft 320 kts 289°
2026-05-05 10:21 24.93370 102.29937 12824 ft 320 kts 289°
2026-05-05 10:22 24.94154 102.27654 12828 ft 320 kts 289°
2026-05-05 10:22 24.94946 102.25346 12829 ft 319 kts 289°
2026-05-05 10:22 24.95723 102.23078 12824 ft 319 kts 289°
2026-05-05 10:22 24.96585 102.20833 12808 ft 320 kts 300°
2026-05-05 10:23 24.98209 102.19138 12833 ft 330 kts 328°
2026-05-05 10:23 25.00449 102.18468 12840 ft 342 kts 355°
2026-05-05 10:23 25.02822 102.19031 12844 ft 355 kts 22°
2026-05-05 10:23 25.04791 102.20717 12860 ft 362 kts 43°
2026-05-05 10:24 25.06617 102.22564 12828 ft 357 kts 27°
2026-05-05 10:24 25.08929 102.23452 12847 ft 345 kts
2026-05-05 10:24 25.11243 102.23102 12848 ft 333 kts 333°
2026-05-05 10:24 25.13203 102.21792 12850 ft 329 kts 326°
2026-05-05 10:25 25.15426 102.21070 12842 ft 341 kts 354°
2026-05-05 10:25 25.17764 102.21568 12848 ft 353 kts 21°
2026-05-05 10:25 25.19866 102.23055 12851 ft 358 kts 32°
2026-05-05 10:25 25.21880 102.24655 12825 ft 358 kts 32°
2026-05-05 10:26 25.23926 102.26283 12787 ft 359 kts 32°
2026-05-05 10:26 25.25937 102.27882 12777 ft 358 kts 32°
2026-05-05 10:26 25.27972 102.29501 12783 ft 358 kts 32°
2026-05-05 10:26 25.29959 102.31084 12758 ft 344 kts 32°
2026-05-05 10:27 25.31855 102.32597 12748 ft 323 kts 32°
2026-05-05 10:27 25.33651 102.34028 12768 ft 318 kts 32°
2026-05-05 10:27 25.35452 102.35462 12784 ft 321 kts 32°
2026-05-05 10:27 25.37292 102.36926 12784 ft 324 kts 32°
2026-05-05 10:28 25.39117 102.38380 12776 ft 325 kts 32°
2026-05-05 10:28 25.40952 102.39842 12778 ft 325 kts 32°
2026-05-05 10:28 25.42786 102.41303 12780 ft 325 kts 32°
2026-05-05 10:28 25.44614 102.42760 12776 ft 325 kts 32°
2026-05-05 10:29 25.46463 102.44235 12781 ft 323 kts 32°
2026-05-05 10:29 25.48274 102.45678 12776 ft 324 kts 32°
2026-05-05 10:29 25.50114 102.47146 12776 ft 324 kts 32°
2026-05-05 10:29 25.51926 102.48591 12774 ft 324 kts 32°
2026-05-05 10:30 25.53768 102.50060 12772 ft 324 kts 32°
2026-05-05 10:30 25.55591 102.51514 12786 ft 323 kts 32°
2026-05-05 10:30 25.57422 102.52976 12793 ft 324 kts 32°
2026-05-05 10:30 25.59259 102.54442 12793 ft 324 kts 32°
2026-05-05 10:31 25.61093 102.55907 12805 ft 324 kts 32°
2026-05-05 10:31 25.62921 102.57365 12815 ft 323 kts 32°
2026-05-05 10:31 25.64753 102.58829 12817 ft 324 kts 32°
2026-05-05 10:31 25.66576 102.60285 12818 ft 324 kts 32°
2026-05-05 10:32 25.68405 102.61747 12834 ft 324 kts 32°
2026-05-05 10:32 25.70236 102.63210 12843 ft 324 kts 32°
2026-05-05 10:32 25.72064 102.64671 12853 ft 323 kts 32°
2026-05-05 10:32 25.73881 102.66123 12859 ft 324 kts 32°
2026-05-05 10:33 25.75698 102.67577 12864 ft 322 kts 32°
2026-05-05 10:33 25.77501 102.69048 12861 ft 324 kts 37°
2026-05-05 10:33 25.79136 102.70807 12873 ft 327 kts 50°
2026-05-05 10:33 25.80501 102.72835 12883 ft 328 kts 51°
2026-05-05 10:34 25.81854 102.74880 12883 ft 327 kts 51°
2026-05-05 10:34 25.82841 102.77119 12895 ft 329 kts 78°
2026-05-05 10:34 25.82756 102.79654 12924 ft 330 kts 109°
2026-05-05 10:34 25.81689 102.81895 12935 ft 329 kts 126°
2026-05-05 10:35 25.80418 102.83961 12903 ft 327 kts 126°
2026-05-05 10:35 25.79123 102.86063 12896 ft 327 kts 126°
2026-05-05 10:35 25.77844 102.88133 12900 ft 328 kts 126°